Location: Étang Rond
(42.7927°N, 1.0661°E)
Time: 01:02:13
(UTC+00:00)

ADEOS Rocket - Pass Details

Date: 08 November 2025
Orbit: 859 x 1304 km, 98.7° (Epoch: 07 December)

Event Time Altitude Azimuth Distance (km) Brightness Sun altitude
Rises 04:18:45 0° 5° (N) 3,780 6.2 -25.9°
Reaches altitude 10° 04:21:20 10° 358° (N) 2,887 5.4 -25.4°
Enters shadow 04:25:41 33° 321° (NW) 1,787 4.0 -24.6°
